Tracking 18917 objects as of 16-Jan-2018
HD Live streaming from Space Station
objects crossing your sky now

FENGYUN 1C DEB

Track FENGYUN 1C DEB now!
10-day predictions


NORAD ID: 31670
Int'l Code: 1999-025CCC
Perigee: 836.6 km
Apogee: 1,234.0 km
Inclination: 98.4 °
Period: 105.7 minutes
Semi major axis: 7406 km
RCS: 0.0137 m2 (small)
Launch date: May 10, 1999
Source: People's Republic of China (PRC)
Launch site: Taiyaun Space Center, China (TSC)

Note: This is SATELLITE DEBRIS
aabbcc
Your satellite tracking list
Your tracking list is empty




NASA's NSSDC Master Catalog

Two Line Element Set (TLE):
1 31670U 99025CCC 18015.34778375 +.00000812 +00000-0 +86227-3 0  9990
2 31670 098.4267 225.3190 0268285 035.3754 326.4866 13.62068542229101
Source of the keplerian elements: AFSPC